{"data":{"norad_id":47831,"epoch":"2026-09-20T02:26:01.250304Z","epoch_age_seconds":63663,"freshness":"FRESH","line1":"1 47831U 21018AW  26263.10140336 -.00000730  00000+0 -11757-4 0  9998","line2":"2 47831  53.1591  57.9405 0001323  52.0252 308.0869 15.31706708306555","mean_motion":15.31706708,"eccentricity":0.0001323,"inclination_deg":53.1591,"raan_deg":57.9405,"arg_perigee_deg":52.0252,"mean_anomaly_deg":308.0869,"bstar":-1.1757e-5,"rev_number":30655,"period_min":94.012776237055,"perigee_km":469.8138953187,"apogee_km":471.62610288066,"semimajor_km":6848.8569990997,"source":"CELESTRAK","updated_at":"2026-09-20T09:00:38.751673Z"}}